Location: Bushey
(51.6333°N, 0.3667°W)
Time: 21:44:03
(UTC+00:00)

MOS 1 Rocket - Pass Details

Date: 03 March 2021
Orbit: 615 x 829 km, 97.4° (Epoch: 15 April)

Event Time Altitude Azimuth Distance (km) Brightness Sun altitude
Rises 18:30:56 0° 11° (N) 3,157 6.6 -7.8°
Reaches altitude 10° 18:33:11 10° 9° (N) 2,263 5.9 -8.2°
Maximum altitude 18:38:09 67° 288° (WNW) 837 4.0 -9.0°
Drops below altitude 10° 18:43:21 10° 206° (SSW) 2,370 6.4 -9.8°
Sets 18:45:45 0° 204° (SSW) 3,318 7.1 -10.1°
